Location: Niagara
(43.2500°N, 79.0670°W)
Time: 17:31:33
(UTC-04:00)

ISS - Pass Details

Date: 10 October 2017
Orbit: 401 x 408 km, 51.6° (Epoch: 22 October)

Event Time Altitude Azimuth Distance (km) Brightness Sun altitude
Rises 21:17:46 0° 299° (WNW) 2,328 1.2 -29.0°
Reaches altitude 10° 21:19:54 10° 292° (WNW) 1,466 -0.1 -29.4°
Enters shadow 21:20:37 15° 288° (WNW) 1,191 -0.7 -29.5°
